www.pogodaiklimat.ru

Погода и климат >> Архив погоды >> Кувейт >> Jahra


ПОГОДА в Jahra

  • Прогноз погоды в Jahra
  • Монитор погоды в Jahra
  • Климат города

АРХИВ ПОГОДЫ в Jahra

Время (UTC), дата Ветер
(напр.,м/с)
 
Видим.   Явления Облачность Т
(С)
Тd
(С)
f
(%)
Тe
(С)
Тes
(С)
Комфортность P
(гПа)
Po
(гПа)
Тmin
(С)
Tmax
(С)
R
(мм)
R24
(мм)
S
(см)
00 8.12 0 н/о н/о +15.1 +10.7 75 1016.4 1016.0
03 8.12 0 н/о н/о +15.3 +10.9 75 1017.5 1018.0
06 8.12 0 н/о н/о +20.4 +8.9 48 1018.9 1019.0
09 8.12 0 н/о н/о +24.8 +6.5 31 1017.7 1018.0
12 8.12 0 н/о н/о +26.4 +3.0 22 1016.5 1017.0
15 8.12 0 н/о н/о +20.9 +10.5 51 1017.9 1018.0
18 8.12 0 н/о н/о +19.0 +14.8 77 1019.3 1019.0
21 8.12 0 н/о н/о +17.3 +13.4 78 1019.0 1019.0 +14.7 +26.8
00 9.12 0 н/о н/о +15.9 +14.4 91 1018.7 1019.0
03 9.12 0 н/о н/о +16.0 +15.4 96 1019.2 1019.0
06 9.12 0 н/о н/о +20.0 +16.5 80 1020.7 1021.0
09 9.12 0 н/о н/о +22.8 +14.2 58 1019.5 1020.0
12 9.12 0 н/о н/о +22.6 +12.8 54 1018.3 1018.0
15 9.12 0 н/о н/о +20.7 +13.3 63 1018.9 1019.0
18 9.12 0 н/о н/о +19.7 +14.3 71 1019.6 1020.0
21 9.12 0 н/о н/о +18.4 +14.0 76 1019.2 1019.0 +15.6 +24.6
00 10.12 0 н/о н/о +17.9 +12.5 71 1018.7 1019.0
03 10.12 0 н/о н/о +15.8 +12.5 81 1018.7 1019.0
06 10.12 0 н/о н/о +18.9 +11.1 61 1019.9 1020.0
09 10.12 0 н/о н/о +21.0 +9.4 47 1018.3 1018.0
12 10.12 0 н/о н/о +22.0 +10.9 49 1017.4 1017.0
15 10.12 0 н/о н/о +20.7 +10.8 53 1019.0 1019.0
18 10.12 0 н/о н/о +18.7 +10.4 58 1019.8 1020.0
21 10.12 0 н/о н/о +17.3 +10.4 64 1020.0 1020.0 +15.7 +23.0
03 11.12 0 н/о н/о +14.9 +10.4 74 1021.7 1022.0
06 11.12 0 н/о н/о +17.5 +10.7 64 1023.2 1023.0
09 11.12 0 н/о н/о +20.9 +7.6 42 1021.6 1022.0
12 11.12 0 н/о н/о +22.6 +5.6 33 1020.7 1021.0
15 11.12 0 н/о н/о +19.4 +7.2 45 1021.8 1022.0
18 11.12 0 н/о н/о +17.5 +7.7 53 1022.3 1022.0
21 11.12 0 н/о н/о +15.7 +8.3 61 1022.5 1023.0 +14.5 +22.8
00 12.12 0 н/о н/о +14.0 +9.1 72 1022.3 1022.0
03 12.12 0 н/о н/о +12.3 +9.1 81 1022.8 1023.0
06 12.12 0 н/о н/о +17.1 +9.6 61 1023.8 1024.0
09 12.12 0 н/о н/о +21.4 +8.1 42 1021.7 1022.0
12 12.12 0 н/о н/о +22.5 +7.3 38 1020.7 1021.0
15 12.12 0 н/о н/о +18.7 +8.6 52 1021.4 1021.0
18 12.12 0 н/о н/о +16.0 +9.8 67 1021.7 1022.0
21 12.12 0 н/о н/о +14.3 +9.7 74 1021.6 1022.0 +12.2 +22.7
00 13.12 0 н/о н/о +13.3 +9.7 79 1021.4 1021.0
03 13.12 0 н/о н/о +12.3 +9.5 83 1022.2 1022.0
06 13.12 0 н/о н/о +18.2 +10.5 61 1023.9 1024.0
09 13.12 0 н/о н/о +22.2 +9.2 43 1022.2 1022.0
12 13.12 0 н/о н/о +22.6 +10.6 47 1021.2 1021.0
15 13.12 0 н/о н/о +18.7 +10.3 58 1022.6 1023.0
18 13.12 0 н/о н/о +16.7 +11.8 73 1023.7 1024.0
21 13.12 0 н/о н/о +15.4 +12.2 81 1023.0 1023.0 +12.0 +23.5
00 14.12 0 н/о н/о +14.4 +11.7 84 1023.7 1024.0
03 14.12 0 н/о н/о +15.2 +10.6 74 1024.6 1025.0
06 14.12 0 н/о н/о +18.1 +11.9 67 1026.0 1026.0
09 14.12 0 н/о н/о +21.9 +12.3 54 1023.9 1024.0
12 14.12 0 н/о н/о +23.0 +9.9 43 1023.1 1023.0
15 14.12 0 н/о н/о +20.6 +7.2 42 1024.7 1025.0
18 14.12 0 н/о н/о +18.1 +8.0 52 1025.2 1025.0
21 14.12 0 н/о н/о +16.5 +9.4 63 1024.7 1025.0 +13.9 +23.3

 

Местоположение метеостанции Jahra (Кувейт): широта 29.32 долгота 47.67 высота над уровнем моря 55 м.

В архиве по умолчанию представлена погода в Jahra за последнюю неделю. Архивные данные за месяц целиком и за предыдущие месяцы, начиная с января 2011 года, Вы можете получить, выбрав интересующий диапазон дат из раскрывающегося списка и нажав кнопку "Ввод!".


*Определитесь, кто Вы:
робот инопланетянин человек

Внимание! Время в таблицах - всемирное. Для получения местного времени необходимо прибавить поправку, которая в Jahra равна 3 ч.

Смотрите также архив погоды в соседних городах и на ближайших метеорологических станциях:

Погода в Sulaibiya (Кувейт) (7 км)
Погода в Experimental Farm (Кувейт) (26 км)
Погода в Minagish (Кувейт) (31 км)
Погода в Kuwait (Кувейт) (31 км)
Погода в Jal Aliyah (Кувейт) (33 км)
Погода в Kuwait City (Кувейт) (37 км)
Погода в Al-Shuaiba (Кувейт) (42 км)
Погода в Sabriyah (Кувейт) (51 км)
Погода в Failaka Island (Кувейт) (61 км)
Погода в Mitribah (Кувейт) (63 км)

Пояснения к столбцам:

Ветер - указаны скорость ветра в м/с - средняя за 10 мин, порывы в срок и между сроками (в фигурных скобках) и направление, откуда дует ветер: С - северный, СВ - северо-восточный, В - восточный, ЮВ - юго-восточный, Ю - южный, ЮЗ - юго-западный, З - западный, СЗ - северо-западный.
Видимость - горизонтальная дальность видимости в метрах или километрах. При видимости от 1 до 10 км при отсутствии осадков обычно наблюдается дымка, при ухудшении видимости до 1 км и менее - туман. В сухую погоду видимость может ухудшаться дымом, пылью или мглою.
Явления - указаны атмосферные явления, наблюдавшиеся в срок или в последний час перед сроком; фигурными скобками обозначены явления, наблюдавшиеся между сроками (за 1-3 часа до срока); квадратными скобками обозначены град или гололедные отложения с указанием их диаметра в мм.
Облачность - указаны через наклонную черту общая и нижняя облачность в баллах и высота нижней границы облаков в метрах; квадратными скобками обозначены формы облаков: Ci - перистые, Cs - перисто-слоистые, Cc - перисто-кучевые, Ac - высококучевые, As - высокослоистые, Sc - слоисто-кучевые, Ns - слоисто-дождевые, Cu - кучевые, Cb - кучево-дождевые. Подробнее классификацию облаков см. в Атласе облаков (PDF).
T - Температура воздуха - температура, измеренная на высоте 2 м над землей.
Td - Температура точки росы - температура, при понижении до которой содержащийся в воздухе водяной пар достигнет насыщения.
f - Относительная влажность воздуха - влажноcть воздуха, измеренная на высоте 2 м над землей.
Te - Эффективная температура - температура, которую ощущает одетый по сезону человек в тени. Характеристика душности погоды. При расчете учитывается влияние влажности воздуха и скорости ветра на теплоощущения человека.
Tes - Эффективная температура на солнце - температура, которую ощущает человек, с поправкой на солнечный нагрев. Характеристика знойности погоды. Зависит от высоты солнца над горизонтом, облачности и скорости ветра. Ночью, в пасмурную погоду, а также при ветре 12 м/с и более поправка равна нулю.
P - Атмосферное давление - приведенное к уровню моря атмосферное давление.
Po - Атмосферное давление - измеренное на уровне метеостанции атмосферное давление.
Tmin - Минимальная температура - минимум температуры воздуха на высоте 2 м над землей.
Tmax - Максимальная температура - максимум температуры воздуха на высоте 2 м над землей.
R - Количество осадков - Количество выпавших осадков за период времени, мм. При наведении курсора мыши на число - период времени, за который выпало указанное количество осадков.
R24 - Количество осадков - Количество выпавших осадков за 24 часа, мм.
S - Снежный покров - Высота снежного покрова, см. При наведении курсора мыши на число - состояние снежного покрова и степень покрытия местности в баллах.